Date String (YYYY-MM-DD hh:mm:ss) UTC,Instrument flags,Ambient pressure (hPa),Sample flow (lpm),Bypass flow (lpm),Sample temperature (°C),Ambient temperature (°C),ASC tube jacket temperature (°C),LED temperature (°C),Box temperature (°C),Sample RH (%),Span deviation,Mass concentration (μg/m³),Mass concentration (μg/m³),Mass concentration (μg/m³)
DateTimeUTC,F1_M11,P_M11,Q1_M11,Q2_M11,T1_M11,T2_M11,T3_M11,T4_M11,T5_M11,U1_M11,ZSPAN_M11,X2_M11,X0_M11,X1_M11
2022-10-06 02:00:00,,0834.0,5.00,0.00,29.8,28.5,00.0,38.5,31.7,18.8,0000.0,0004.69,0009.29,0004.34
2022-10-06 02:01:00,,0834.0,5.01,0.00,29.8,28.5,00.0,38.5,31.7,18.7,0000.0,0004.70,0009.28,0004.33
2022-10-06 02:02:00,,0834.0,4.99,0.00,29.8,28.5,00.0,38.5,31.7,18.7,0000.0,0004.68,0009.25,0004.32
2022-10-06 02:03:00,,0834.0,5.01,0.00,29.8,28.6,00.0,38.5,31.7,18.7,0000.0,0004.67,0009.51,0004.32
2022-10-06 02:04:00,,0834.0,4.99,0.00,29.8,28.6,00.0,38.5,31.7,18.6,0000.0,0004.73,0009.90,0004.32
2022-10-06 02:05:00,,0834.0,5.01,0.00,29.9,28.6,00.0,38.5,31.7,18.6,0000.0,0004.76,0009.94,0004.33
2022-10-06 02:06:00,,0834.0,4.99,0.00,29.9,28.6,00.0,38.5,31.8,18.6,0000.0,0004.74,0010.00,0004.33
2022-10-06 02:07:00,,0834.0,5.01,0.00,29.9,28.6,00.0,38.6,31.7,18.6,0000.0,0004.76,0010.15,0004.33
2022-10-06 02:08:00,,0834.0,4.99,0.00,29.9,28.6,00.0,38.6,31.8,18.6,0000.0,0004.75,0009.88,0004.34
2022-10-06 02:09:00,,0834.0,5.01,0.00,29.9,28.7,00.0,38.6,31.8,18.6,0000.0,0004.75,0009.60,0004.33
2022-10-06 02:10:00,,0834.0,4.99,0.00,29.9,28.7,00.0,38.6,31.8,18.6,0000.0,0004.77,0010.80,0004.35
2022-10-06 02:11:00,,0834.0,5.02,0.00,29.9,28.7,00.0,38.6,31.8,18.6,0000.0,0004.77,0010.98,0004.36
2022-10-06 02:12:00,,0834.0,4.98,0.00,30.0,28.7,00.0,38.6,31.8,18.6,0000.0,0004.76,0011.32,0004.38
2022-10-06 02:13:00,,0834.0,5.01,0.00,30.0,28.7,00.0,38.6,31.8,18.6,0000.0,0004.77,0011.33,0004.39
2022-10-06 02:14:00,,0834.0,4.99,0.00,30.0,28.7,00.0,38.7,31.9,18.6,0000.0,0004.77,0011.35,0004.39
2022-10-06 02:15:00,,0834.0,5.02,0.00,30.0,28.7,00.0,38.7,31.9,18.6,0000.0,0004.72,0011.17,0004.39
2022-10-06 02:16:00,,0834.0,4.98,0.00,30.0,28.7,00.0,38.7,31.9,18.6,0000.0,0004.70,0011.04,0004.38
2022-10-06 02:17:00,,0834.1,5.01,0.00,30.0,28.7,00.0,38.7,31.9,18.6,0000.0,0004.72,0010.98,0004.37
2022-10-06 02:18:00,,0834.0,4.99,0.00,30.0,28.8,00.0,38.7,31.9,18.6,0000.0,0004.72,0010.98,0004.38
2022-10-06 02:19:00,,0834.0,5.02,0.00,30.0,28.8,00.0,38.7,31.9,18.5,0000.0,0004.72,0011.42,0004.39
2022-10-06 02:20:00,,0834.0,4.99,0.00,30.1,28.7,00.0,38.7,31.9,18.6,0000.0,0004.73,0011.95,0004.40
2022-10-06 02:21:00,,0834.0,5.01,0.00,30.1,28.7,00.0,38.8,31.9,18.6,0000.0,0004.73,0011.60,0004.40
2022-10-06 02:22:00,,0834.0,5.00,0.00,30.1,28.7,00.0,38.8,31.9,18.6,0000.0,0004.75,0010.75,0004.39
2022-10-06 02:23:00,,0834.1,5.00,0.00,30.1,28.7,00.0,38.8,31.9,18.6,0000.0,0004.79,0010.55,0004.39
2022-10-06 02:24:00,,0834.0,5.01,0.00,30.1,28.8,00.0,38.8,31.9,18.6,0000.0,0004.80,0010.43,0004.38
2022-10-06 02:25:00,,0834.0,4.98,0.00,30.1,28.8,00.0,38.8,31.9,18.6,0000.0,0004.78,0010.09,0004.38
2022-10-06 02:26:00,,0834.0,5.01,0.00,30.1,28.8,00.0,38.8,32.0,18.6,0000.0,0004.81,0009.66,0004.37
2022-10-06 02:27:00,,0834.1,4.99,0.00,30.1,28.8,00.0,38.8,32.0,18.6,0000.0,0004.78,0009.63,0004.35
2022-10-06 02:28:00,,0834.1,5.01,0.00,30.1,28.7,00.0,38.8,31.9,18.6,0000.0,0004.75,0010.36,0004.33
2022-10-06 02:29:00,,0834.0,4.99,0.00,30.1,28.7,00.0,38.8,31.9,18.6,0000.0,0004.74,0010.12,0004.30
2022-10-06 02:30:00,,0834.1,5.01,0.00,30.1,28.7,00.0,38.8,31.9,18.6,0000.0,0004.73,0010.03,0004.27
2022-10-06 02:31:00,,0834.1,4.99,0.00,30.1,28.7,00.0,38.8,31.9,18.6,0000.0,0004.70,0009.59,0004.24
2022-10-06 02:32:00,,0834.1,5.00,0.00,30.1,28.8,00.0,38.8,32.0,18.6,0000.0,0004.67,0009.02,0004.21
2022-10-06 02:33:00,,0834.1,5.00,0.00,30.1,28.8,00.0,38.9,31.9,18.5,0000.0,0004.63,0008.92,0004.20
2022-10-06 02:34:00,,0834.1,4.99,0.00,30.1,28.7,00.0,38.9,32.0,18.5,0000.0,0004.54,0008.75,0004.16
2022-10-06 02:35:00,,0834.1,5.01,0.00,30.2,28.4,00.0,38.9,32.0,18.5,0000.0,0004.49,0008.65,0004.14
2022-10-06 02:36:00,,0834.0,5.00,0.00,30.1,26.9,00.0,38.8,31.8,18.5,0000.0,0004.45,0008.62,0004.12
2022-10-06 02:37:00,,0834.1,4.99,0.00,30.0,26.1,00.0,38.8,31.7,18.5,0000.0,0004.41,0008.61,0004.11
2022-10-06 02:38:00,,0834.0,5.00,0.00,29.9,26.2,00.0,38.7,31.4,18.6,0000.0,0004.42,0008.66,0004.12
2022-10-06 02:39:00,,0834.1,5.00,0.00,29.8,26.5,00.0,38.7,31.3,18.8,0000.0,0004.44,0008.04,0004.12
2022-10-06 02:40:00,,0834.1,4.99,0.00,29.7,26.9,00.0,38.6,31.3,18.9,0000.0,0004.42,0008.12,0004.12
2022-10-06 02:41:00,,0834.1,5.00,0.00,29.7,27.2,00.0,38.6,31.3,19.0,0000.0,0004.39,0008.25,0004.11
2022-10-06 02:42:00,,0834.1,4.99,0.00,29.7,27.4,00.0,38.6,31.4,18.9,0000.0,0004.40,0008.21,0004.10
2022-10-06 02:43:00,,0834.1,5.00,0.00,29.7,27.6,00.0,38.5,31.3,19.0,0000.0,0004.37,0008.17,0004.09
2022-10-06 02:44:00,,0834.1,5.01,0.00,29.6,27.7,00.0,38.5,31.3,19.0,0000.0,0004.38,0008.26,0004.09
2022-10-06 02:45:00,,0834.1,5.00,0.00,29.6,27.8,00.0,38.5,31.4,19.0,0000.0,0004.42,0008.69,0004.08
2022-10-06 02:46:00,,0834.1,4.99,0.00,29.6,27.9,00.0,38.5,31.4,18.9,0000.0,0004.44,0008.80,0004.08
2022-10-06 02:47:00,,0834.1,5.00,0.00,29.6,28.0,00.0,38.5,31.4,18.9,0000.0,0004.47,0008.85,0004.07
2022-10-06 02:48:00,,0834.1,5.00,0.00,29.6,28.0,00.0,38.4,31.4,18.9,0000.0,0004.48,0008.87,0004.06
2022-10-06 02:49:00,,0834.1,4.99,0.00,29.6,28.1,00.0,38.4,31.4,18.9,0000.0,0004.46,0008.91,0004.05
2022-10-06 02:50:00,,0834.2,5.01,0.00,29.6,28.1,00.0,38.4,31.4,18.8,0000.0,0004.42,0008.86,0004.04
2022-10-06 02:51:00,,0834.2,4.99,0.00,29.7,28.2,00.0,38.4,31.5,18.8,0000.0,0004.43,0009.31,0004.04
2022-10-06 02:52:00,,0834.2,5.01,0.00,29.7,28.2,00.0,38.4,31.4,18.8,0000.0,0004.46,0009.27,0004.05
2022-10-06 02:53:00,,0834.3,4.99,0.00,29.7,28.2,00.0,38.4,31.5,18.7,0000.0,0004.45,0009.15,0004.05
2022-10-06 02:54:00,,0834.3,5.01,0.00,29.7,28.2,00.0,38.4,31.5,18.7,0000.0,0004.48,0009.41,0004.06
2022-10-06 02:55:00,,0834.3,5.00,0.00,29.7,28.3,00.0,38.4,31.5,18.8,0000.0,0004.47,0009.46,0004.06
2022-10-06 02:56:00,,0834.3,4.99,0.00,29.7,28.3,00.0,38.4,31.5,18.8,0000.0,0004.45,0009.24,0004.06
2022-10-06 02:57:00,,0834.3,4.99,0.00,29.7,28.3,00.0,38.5,31.5,18.7,0000.0,0004.46,0009.73,0004.07
2022-10-06 02:58:00,,0834.3,5.00,0.00,29.7,28.3,00.0,38.5,31.5,18.7,0000.0,0004.51,0009.97,0004.10
2022-10-06 02:59:00,,0834.3,4.99,0.00,29.7,28.3,00.0,38.5,31.5,18.7,0000.0,0004.50,0010.22,0004.12
